Location: La Pernelle
(49.6188°N, 1.2999°W)
Time: 12:23:43
(UTC+00:00)

Cosmos 1954 Rocket - Pass Details

Date: 24 October 2021
Orbit: 751 x 782 km, 74.0° (Epoch: 26 November)

Event Time Altitude Azimuth Distance (km) Brightness Sun altitude
Rises 18:21:43 0° 342° (NNW) 3,236 7.5 -14.3°
Reaches altitude 10° 18:24:39 10° 358° (N) 2,311 6.5 -14.8°
Maximum altitude 18:28:39 22° 48° (NE) 1,655 5.3 -15.5°
Enters shadow 18:29:27 21° 61° (ENE) 1,688 5.3 -15.6°
